Weather History for Faribault, MN

Change the Weather History Date:

Monday, July 22, 2013

  Actual Average Record
Temperature  
Mean Temperature 75 °F -  
Max Temperature 86 °F 82 °F 99 °F (1983)
Min Temperature 64 °F 60 °F 46 °F (1985)
Cooling Degree Days 10    
Growing Degree Days 25 (Base 50)    
Moisture  
Dew Point 67 °F    
Average Humidity 80    
Maximum Humidity 100    
Minimum Humidity 55    
Precipitation  
Precipitation 0.00 in - - ()
Sea Level Pressure  
Sea Level Pressure 29.77 in    
Wind  
Wind Speed 8 mph (SW)    
Max Wind Speed 15 mph    
Max Gust Speed 21 mph    
Visibility 9 miles    
Events      
Averages and records for this station are not official NWS values.
T = Trace of Precipitation, MM = Missing Value Source: NWS Daily Summary

Daily Weather History Graph

Daily Weather History Graph

Search for Another Location

Airport:

Trip Planner

Search our weather history database for the weather conditions in past years. The results will help you decide how hot, cold, wet, or windy it might be!

Date:

Astronomy

Jul. 22, 2013 Rise Set
Actual Time 5:50 AM CDT 8:48 PM CDT
Civil Twilight 5:15 AM CDT 9:22 PM CDT
Nautical Twilight 4:31 AM CDT 10:06 PM CDT
Astronomical Twilight 3:39 AM CDT 10:58 PM CDT
Moon 8:31 PM CDT (7/22) 5:49 AM CDT (7/22)
Length of Visible Light 16h 07m
Length of Day
14h 58m
Full, 100% of the Moon is Illuminated
Jul 22
Full
Jul 22
Full
Jul 29
Last Quarter
Aug 6
New
Aug 14
First Quarter

Hourly Weather History & Observations

Time (CDT) Temp. Heat Index Dew Point Humidity Pressure Visibility Wind Dir Wind Speed Gust Speed Precip Events Conditions
12:14 AM 68.0 °F - 64.4 °F 88% 29.83 in 10.0 mi SSE 8.1 mph - N/A   Clear
12:33 AM 68.0 °F - 64.4 °F 88% 29.84 in 10.0 mi SE 8.1 mph - N/A   Clear
12:54 AM 68.0 °F - 64.4 °F 88% 29.83 in 10.0 mi SSE 8.1 mph - N/A   Scattered Clouds
1:14 AM 66.2 °F - 64.4 °F 94% 29.82 in 10.0 mi SSE 6.9 mph - N/A   Clear
1:34 AM 66.2 °F - 64.4 °F 94% 29.81 in 10.0 mi SE 6.9 mph - N/A   Clear
1:54 AM 66.2 °F - 64.4 °F 94% 29.81 in 10.0 mi SSE 6.9 mph - N/A   Clear
2:14 AM 66.2 °F - 64.4 °F 94% 29.82 in 10.0 mi SSE 6.9 mph - N/A   Clear
2:34 AM 66.2 °F - 64.4 °F 94% 29.81 in 10.0 mi SE 5.8 mph - N/A   Clear
2:54 AM 66.2 °F - 64.4 °F 94% 29.80 in 10.0 mi South 5.8 mph - N/A   Clear
3:14 AM 64.4 °F - 64.4 °F 100% 29.79 in 10.0 mi South 8.1 mph - N/A   Clear
3:34 AM 64.4 °F - 64.4 °F 100% 29.79 in 10.0 mi South 9.2 mph - N/A   Clear
3:54 AM 64.4 °F - 64.4 °F 100% 29.78 in 10.0 mi South 8.1 mph - N/A   Clear
4:13 AM 64.4 °F - 64.4 °F 100% 29.78 in 10.0 mi South 6.9 mph - N/A   Clear
4:34 AM 64.4 °F - 64.4 °F 100% 29.77 in 10.0 mi South 8.1 mph - N/A   Clear
4:54 AM 64.4 °F - 64.4 °F 100% 29.79 in 10.0 mi South 4.6 mph - N/A   Clear
5:14 AM 64.4 °F - 64.4 °F 100% 29.79 in 10.0 mi South 4.6 mph - N/A   Clear
5:34 AM 64.4 °F - 64.4 °F 100% 29.79 in 10.0 mi SSE 5.8 mph - N/A   Clear
5:53 AM 64.4 °F - 64.4 °F 100% 29.78 in 7.0 mi SSE 5.8 mph - N/A   Clear
6:14 AM 64.4 °F - 64.4 °F 100% 29.77 in 7.0 mi SSE 6.9 mph - N/A   Clear
6:34 AM 64.4 °F - 64.4 °F 100% 29.78 in 7.0 mi SSW 4.6 mph - N/A   Clear
6:54 AM 66.2 °F - 64.4 °F 94% 29.78 in 7.0 mi SSE 6.9 mph - N/A   Clear
7:14 AM 66.2 °F - 66.2 °F 100% 29.77 in 5.0 mi SSE 8.1 mph - N/A   Clear
7:34 AM 68.0 °F - 66.2 °F 94% 29.76 in 5.0 mi SSE 9.2 mph - N/A   Scattered Clouds
7:54 AM 68.0 °F - 66.2 °F 94% 29.76 in 5.0 mi SSE 8.1 mph - N/A   Overcast
8:14 AM 69.8 °F - 68.0 °F 94% 29.77 in 5.0 mi South 8.1 mph - N/A   Mostly Cloudy
8:34 AM 69.8 °F - 68.0 °F 94% 29.76 in 7.0 mi SSE 8.1 mph - N/A   Overcast
8:54 AM 71.6 °F - 68.0 °F 88% 29.75 in 7.0 mi South 10.4 mph - N/A   Mostly Cloudy
9:14 AM 71.6 °F - 69.8 °F 94% 29.75 in 7.0 mi SSE 11.5 mph 16.1 mph N/A   Scattered Clouds
9:34 AM 73.4 °F - 69.8 °F 88% 29.75 in 10.0 mi South 11.5 mph 16.1 mph N/A   Scattered Clouds
9:54 AM 75.2 °F - 71.6 °F 89% 29.75 in 10.0 mi South 9.2 mph - N/A   Clear
10:14 AM 75.2 °F - 71.6 °F 89% 29.74 in 10.0 mi South 9.2 mph - N/A   Clear
10:34 AM 77.0 °F - 71.6 °F 83% 29.73 in 10.0 mi South 11.5 mph - N/A   Clear
10:54 AM 78.8 °F - 71.6 °F 78% 29.73 in 10.0 mi South 11.5 mph - N/A   Clear
11:14 AM 78.8 °F - 71.6 °F 78% 29.72 in 10.0 mi South 9.2 mph 18.4 mph N/A   Clear
11:34 AM 80.6 °F 84.6 °F 71.6 °F 74% 29.72 in 10.0 mi South 10.4 mph 16.1 mph N/A   Clear
11:54 AM 80.6 °F 85.4 °F 73.4 °F 79% 29.72 in 10.0 mi South 10.4 mph - N/A   Clear
12:13 PM 80.6 °F 85.4 °F 73.4 °F 79% 29.72 in 10.0 mi SSW 10.4 mph - N/A   Scattered Clouds
12:34 PM 82.4 °F 88.2 °F 73.4 °F 74% 29.72 in 10.0 mi South 9.2 mph - N/A   Clear
12:54 PM 82.4 °F 88.2 °F 73.4 °F 74% 29.72 in 10.0 mi SW 10.4 mph - N/A   Clear
1:13 PM 84.2 °F 88.4 °F 69.8 °F 62% 29.72 in 10.0 mi SW 10.4 mph - N/A   Clear
1:34 PM 84.2 °F 89.6 °F 71.6 °F 66% 29.72 in 10.0 mi WSW 11.5 mph - N/A   Scattered Clouds
1:54 PM 84.2 °F 89.6 °F 71.6 °F 66% 29.72 in 10.0 mi WSW 13.8 mph - N/A   Scattered Clouds
2:14 PM 82.4 °F 87.2 °F 71.6 °F 70% 29.72 in 10.0 mi West 9.2 mph 16.1 mph N/A   Mostly Cloudy
2:34 PM 82.4 °F 87.2 °F 71.6 °F 70% 29.73 in 10.0 mi WSW 10.4 mph - N/A   Mostly Cloudy
2:54 PM 84.2 °F 89.6 °F 71.6 °F 66% 29.72 in 10.0 mi WSW 9.2 mph - N/A   Mostly Cloudy
3:14 PM 84.2 °F 89.6 °F 71.6 °F 66% 29.72 in 10.0 mi WSW 9.2 mph - N/A   Mostly Cloudy
3:34 PM 84.2 °F 90.9 °F 73.4 °F 70% 29.71 in 10.0 mi West 6.9 mph - N/A   Scattered Clouds
3:54 PM 84.2 °F 90.9 °F 73.4 °F 70% 29.71 in 10.0 mi WNW 9.2 mph - N/A   Scattered Clouds
4:14 PM 86.0 °F 91.8 °F 71.6 °F 62% 29.70 in 10.0 mi WNW 10.4 mph 16.1 mph N/A   Scattered Clouds
4:34 PM 84.2 °F 88.4 °F 69.8 °F 62% 29.70 in 10.0 mi WNW 15.0 mph 19.6 mph N/A   Clear
4:53 PM 84.2 °F 88.4 °F 69.8 °F 62% 29.72 in 10.0 mi WNW 12.7 mph 20.7 mph N/A   Scattered Clouds
5:14 PM 84.2 °F 87.3 °F 68.0 °F 58% 29.72 in 10.0 mi West 15.0 mph 18.4 mph N/A   Scattered Clouds
5:34 PM 84.2 °F 86.6 °F 66.2 °F 55% 29.72 in 10.0 mi WNW 11.5 mph - N/A   Scattered Clouds
5:53 PM 82.4 °F 84.6 °F 66.2 °F 58% 29.71 in 10.0 mi WNW 12.7 mph 20.7 mph N/A   Clear
6:14 PM 80.6 °F 82.3 °F 64.4 °F 58% 29.72 in 10.0 mi WNW 11.5 mph 17.3 mph N/A   Clear
6:34 PM 80.6 °F 82.3 °F 64.4 °F 58% 29.73 in 10.0 mi WNW 11.5 mph - N/A   Clear
6:54 PM 80.6 °F 82.3 °F 64.4 °F 58% 29.75 in 10.0 mi WNW 11.5 mph 20.7 mph N/A   Clear
7:14 PM 78.8 °F - 64.4 °F 61% 29.76 in 10.0 mi WNW 12.7 mph 19.6 mph N/A   Clear
7:34 PM 77.0 °F - 64.4 °F 65% 29.78 in 10.0 mi WNW 10.4 mph 19.6 mph N/A   Clear
7:54 PM 77.0 °F - 62.6 °F 61% 29.78 in 10.0 mi WNW 10.4 mph 16.1 mph N/A   Scattered Clouds
8:14 PM 75.2 °F - 62.6 °F 65% 29.78 in 10.0 mi WNW 9.2 mph 16.1 mph N/A   Scattered Clouds
8:34 PM 73.4 °F - 62.6 °F 69% 29.78 in 10.0 mi WNW 6.9 mph - N/A   Clear
8:54 PM 73.4 °F - 62.6 °F 69% 29.79 in 10.0 mi WNW 8.1 mph - N/A   Clear
9:14 PM 71.6 °F - 62.6 °F 73% 29.80 in 10.0 mi WNW 8.1 mph - N/A   Clear
9:33 PM 71.6 °F - 62.6 °F 73% 29.80 in 10.0 mi WNW 9.2 mph - N/A   Clear
9:54 PM 69.8 °F - 60.8 °F 73% 29.82 in 10.0 mi WNW 5.8 mph - N/A   Clear
10:14 PM 69.8 °F - 60.8 °F 73% 29.82 in 10.0 mi NW 6.9 mph - N/A   Clear
10:33 PM 68.0 °F - 60.8 °F 78% 29.83 in 10.0 mi NW 6.9 mph - N/A   Clear
10:54 PM 68.0 °F - 60.8 °F 78% 29.84 in 10.0 mi WNW 6.9 mph - N/A   Clear
11:14 PM 66.2 °F - 60.8 °F 83% 29.84 in 10.0 mi NW 6.9 mph - N/A   Clear
11:34 PM 66.2 °F - 60.8 °F 83% 29.86 in 10.0 mi NW 4.6 mph - N/A   Scattered Clouds
11:54 PM 66.2 °F - 60.8 °F 83% 29.87 in 10.0 mi WNW 4.6 mph - N/A   Mostly Cloudy